owner,sensor,date,latitude,longitude,vertical_datum,wind_speed,wind_to_direction,wind_speed_of_gust,qcFlag 
TCOON,ioos:station:TCOON:518:1,2017-01-01T00:00:00Z,29.5150,-94.5133,0.0,2.0,169.0,2.7,'11111222,11111222,11111222' 
TCOON,ioos:station:TCOON:518:1,2017-01-01T00:06:00Z,29.5150,-94.5133,0.0,1.7,177.0,2.6,'11111222,11111222,11111222' 
TCOON,ioos:station:TCOON:518:1,2017-01-01T00:12:00Z,29.5150,-94.5133,0.0,1.7,181.0,2.5,'11111222,11111222,11111222' 
TCOON,ioos:station:TCOON:518:1,2017-01-01T00:18:00Z,29.5150,-94.5133,0.0,1.0,202.0,2.5,'11111222,11111222,11111222' 
TCOON,ioos:station:TCOON:518:1,2017-01-01T00:24:00Z,29.5150,-94.5133,0.0,1.0,202.0,2.5,'1111122,1111122,1111122' 
TCOON,ioos:station:TCOON:518:1,2017-01-01T00:30:00Z,29.5150,-94.5133,0.0,0.9,182.0,1.8,'11111222,11111222,11111222' 
TCOON,ioos:station:TCOON:518:1,2017-01-01T00:36:00Z,29.5150,-94.5133,0.0,0.1,226.0,1.2,'11111222,11111222,11111222' 
TCOON,ioos:station:TCOON:518:1,2017-01-01T00:42:00Z,29.5150,-94.5133,0.0,0.0,219.0,0.4,'11111222,11111222,11111222' 
TCOON,ioos:station:TCOON:518:1,2017-01-01T00:48:00Z,29.5150,-94.5133,0.0,0.5,164.0,0.7,'11111222,11111222,11111222' 
TCOON,ioos:station:TCOON:518:1,2017-01-01T00:54:00Z,29.5150,-94.5133,0.0,1.1,144.0,1.2,'11111222,11111222,11111222' 
TCOON,ioos:station:TCOON:518:1,2017-01-01T01:00:00Z,29.5150,-94.5133,0.0,0.8,125.0,1.1,'11111222,11111222,11111222' 
TCOON,ioos:station:TCOON:518:1,2017-01-01T01:06:00Z,29.5150,-94.5133,0.0,1.3,126.0,1.4,'11111222,11111222,11111222' 
TCOON,ioos:station:TCOON:518:1,2017-01-01T01:12:00Z,29.5150,-94.5133,0.0,1.7,127.0,1.8,'11111222,11111222,11111222' 
TCOON,ioos:station:TCOON:518:1,2017-01-01T01:18:00Z,29.5150,-94.5133,0.0,1.7,127.0,1.8,'1111122,1111122,1111122' 
TCOON,ioos:station:TCOON:518:1,2017-01-01T01:24:00Z,29.5150,-94.5133,0.0,1.2,116.0,1.3,'11111222,11111222,11111222' 
TCOON,ioos:station:TCOON:518:1,2017-01-01T01:30:00Z,29.5150,-94.5133,0.0,1.2,113.0,1.5,'11111222,11111222,11111222' 
TCOON,ioos:station:TCOON:518:1,2017-01-01T01:36:00Z,29.5150,-94.5133,0.0,0.3,104.0,1.0,'11111222,11111222,11111222' 
TCOON,ioos:station:TCOON:518:1,2017-01-01T01:42:00Z,29.5150,-94.5133,0.0,0.0,101.0,0.2,'11111222,11111222,11111222' 
TCOON,ioos:station:TCOON:518:1,2017-01-01T01:48:00Z,29.5150,-94.5133,0.0,0.1,101.0,0.3,'11111222,11111222,11111222' 
TCOON,ioos:station:TCOON:518:1,2017-01-01T01:54:00Z,29.5150,-94.5133,0.0,0.8,101.0,0.8,'11111222,11111222,11111222' 
TCOON,ioos:station:TCOON:518:1,2017-01-01T02:00:00Z,29.5150,-94.5133,0.0,0.8,106.0,1.0,'11111222,11111222,11111222' 
TCOON,ioos:station:TCOON:518:1,2017-01-01T02:06:00Z,29.5150,-94.5133,0.0,0.4,97.0,0.8,'11111222,11111222,11111222' 
TCOON,ioos:station:TCOON:518:1,2017-01-01T02:12:00Z,29.5150,-94.5133,0.0,0.0,97.0,0.1,'11111222,11111222,11111222' 
TCOON,ioos:station:TCOON:518:1,2017-01-01T02:18:00Z,29.5150,-94.5133,0.0,0.0,97.0,0.1,'1114422,1111122,1111122' 
TCOON,ioos:station:TCOON:518:1,2017-01-01T02:24:00Z,29.5150,-94.5133,0.0,1.5,148.0,1.6,'11111222,11111222,11111222' 
TCOON,ioos:station:TCOON:518:1,2017-01-01T02:30:00Z,29.5150,-94.5133,0.0,1.2,163.0,1.5,'11111222,11111222,11111222' 
TCOON,ioos:station:TCOON:518:1,2017-01-01T02:36:00Z,29.5150,-94.5133,0.0,0.7,178.0,1.3,'11111222,11111222,11111222' 
TCOON,ioos:station:TCOON:518:1,2017-01-01T02:42:00Z,29.5150,-94.5133,0.0,1.3,168.0,1.6,'11111222,11111222,11111222' 
TCOON,ioos:station:TCOON:518:1,2017-01-01T02:48:00Z,29.5150,-94.5133,0.0,1.4,171.0,1.8,'11111222,11111222,11111222' 
TCOON,ioos:station:TCOON:518:1,2017-01-01T02:54:00Z,29.5150,-94.5133,0.0,1.5,178.0,2.1,'11111222,11111222,11111222' 
TCOON,ioos:station:TCOON:518:1,2017-01-01T03:00:00Z,29.5150,-94.5133,0.0,1.7,171.0,2.3,'11111222,11111222,11111222' 
TCOON,ioos:station:TCOON:518:1,2017-01-01T03:06:00Z,29.5150,-94.5133,0.0,1.2,173.0,1.9,'11111222,11111222,11111222' 
TCOON,ioos:station:TCOON:518:1,2017-01-01T03:12:00Z,29.5150,-94.5133,0.0,1.1,176.0,2.0,'11111222,11111222,11111222' 
TCOON,ioos:station:TCOON:518:1,2017-01-01T03:18:00Z,29.5150,-94.5133,0.0,1.1,176.0,2.0,'1111122,1111122,1111122' 
TCOON,ioos:station:TCOON:518:1,2017-01-01T03:24:00Z,29.5150,-94.5133,0.0,2.0,175.0,2.7,'11111222,11111222,11111222' 
TCOON,ioos:station:TCOON:518:1,2017-01-01T03:30:00Z,29.5150,-94.5133,0.0,2.3,180.0,2.9,'11111222,11111222,11111222' 
TCOON,ioos:station:TCOON:518:1,2017-01-01T03:36:00Z,29.5150,-94.5133,0.0,1.3,186.0,2.6,'11111222,11111222,11111222' 
TCOON,ioos:station:TCOON:518:1,2017-01-01T03:42:00Z,29.5150,-94.5133,0.0,1.1,189.0,2.5,'11111222,11111222,11111222' 
TCOON,ioos:station:TCOON:518:1,2017-01-01T03:48:00Z,29.5150,-94.5133,0.0,1.3,177.0,2.4,'11111222,11111222,11111222' 
TCOON,ioos:station:TCOON:518:1,2017-01-01T03:54:00Z,29.5150,-94.5133,0.0,1.7,186.0,2.7,'11111222,11111222,11111222' 
TCOON,ioos:station:TCOON:518:1,2017-01-01T04:00:00Z,29.5150,-94.5133,0.0,0.8,212.0,2.3,'11111222,11111222,11111222' 
TCOON,ioos:station:TCOON:518:1,2017-01-01T04:06:00Z,29.5150,-94.5133,0.0,0.8,210.0,1.8,'11111222,11111222,11111222' 
TCOON,ioos:station:TCOON:518:1,2017-01-01T04:12:00Z,29.5150,-94.5133,0.0,1.8,182.0,2.5,'11111222,11111222,11111222' 
TCOON,ioos:station:TCOON:518:1,2017-01-01T04:18:00Z,29.5150,-94.5133,0.0,1.0,188.0,2.3,'11111222,11111222,11111222' 
TCOON,ioos:station:TCOON:518:1,2017-01-01T04:24:00Z,29.5150,-94.5133,0.0,0.8,195.0,1.8,'11111222,11111222,11111222' 
TCOON,ioos:station:TCOON:518:1,2017-01-01T04:30:00Z,29.5150,-94.5133,0.0,0.8,195.0,1.8,'1111122,1111122,1111122' 
TCOON,ioos:station:TCOON:518:1,2017-01-01T04:36:00Z,29.5150,-94.5133,0.0,1.0,211.0,1.6,'11111222,11111222,11111222' 
TCOON,ioos:station:TCOON:518:1,2017-01-01T04:42:00Z,29.5150,-94.5133,0.0,1.2,189.0,2.1,'11111222,11111222,11111222' 
TCOON,ioos:station:TCOON:518:1,2017-01-01T04:48:00Z,29.5150,-94.5133,0.0,0.7,198.0,1.8,'11111222,11111222,11111222' 
TCOON,ioos:station:TCOON:518:1,2017-01-01T04:54:00Z,29.5150,-94.5133,0.0,1.0,213.0,1.5,'11111222,11111222,11111222' 
TCOON,ioos:station:TCOON:518:1,2017-01-01T05:00:00Z,29.5150,-94.5133,0.0,0.8,204.0,1.4,'11111222,11111222,11111222' 
TCOON,ioos:station:TCOON:518:1,2017-01-01T05:06:00Z,29.5150,-94.5133,0.0,1.2,194.0,2.0,'11111222,11111222,11111222' 
TCOON,ioos:station:TCOON:518:1,2017-01-01T05:12:00Z,29.5150,-94.5133,0.0,1.3,180.0,2.0,'11111222,11111222,11111222' 
TCOON,ioos:station:TCOON:518:1,2017-01-01T05:18:00Z,29.5150,-94.5133,0.0,1.2,193.0,2.1,'11111222,11111222,11111222' 
TCOON,ioos:station:TCOON:518:1,2017-01-01T05:24:00Z,29.5150,-94.5133,0.0,1.2,193.0,2.1,'1111122,1111122,1111122' 
TCOON,ioos:station:TCOON:518:1,2017-01-01T05:30:00Z,29.5150,-94.5133,0.0,0.7,213.0,1.8,'11111222,11111222,11111222' 
TCOON,ioos:station:TCOON:518:1,2017-01-01T05:36:00Z,29.5150,-94.5133,0.0,1.1,217.0,1.7,'11111222,11111222,11111222' 
TCOON,ioos:station:TCOON:518:1,2017-01-01T05:42:00Z,29.5150,-94.5133,0.0,1.0,199.0,1.6,'11111222,11111222,11111222' 
TCOON,ioos:station:TCOON:518:1,2017-01-01T05:48:00Z,29.5150,-94.5133,0.0,1.7,193.0,2.4,'11111222,11111222,11111222' 
TCOON,ioos:station:TCOON:518:1,2017-01-01T05:54:00Z,29.5150,-94.5133,0.0,1.1,198.0,2.5,'11111222,11111222,11111222' 
TCOON,ioos:station:TCOON:518:1,2017-01-01T06:00:00Z,29.5150,-94.5133,0.0,0.8,208.0,1.9,'11111222,11111222,11111222' 
TCOON,ioos:station:TCOON:518:1,2017-01-01T06:06:00Z,29.5150,-94.5133,0.0,1.0,189.0,1.4,'11111222,11111222,11111222' 
TCOON,ioos:station:TCOON:518:1,2017-01-01T06:12:00Z,29.5150,-94.5133,0.0,1.1,184.0,1.8,'11111222,11111222,11111222' 
TCOON,ioos:station:TCOON:518:1,2017-01-01T06:18:00Z,29.5150,-94.5133,0.0,1.1,184.0,1.8,'1111122,1111122,1111122' 
TCOON,ioos:station:TCOON:518:1,2017-01-01T06:24:00Z,29.5150,-94.5133,0.0,1.4,181.0,2.5,'11111222,11111222,11111222' 
TCOON,ioos:station:TCOON:518:1,2017-01-01T06:30:00Z,29.5150,-94.5133,0.0,1.4,175.0,2.3,'11111222,11111222,11111222' 
TCOON,ioos:station:TCOON:518:1,2017-01-01T06:36:00Z,29.5150,-94.5133,0.0,1.1,180.0,2.7,'11111222,11111222,11111222' 
TCOON,ioos:station:TCOON:518:1,2017-01-01T06:42:00Z,29.5150,-94.5133,0.0,1.3,179.0,3.1,'11111222,11111222,11111222' 
TCOON,ioos:station:TCOON:518:1,2017-01-01T06:48:00Z,29.5150,-94.5133,0.0,2.0,174.0,3.0,'11111222,11111222,11111222' 
TCOON,ioos:station:TCOON:518:1,2017-01-01T06:54:00Z,29.5150,-94.5133,0.0,1.6,171.0,2.8,'11111222,11111222,11111222' 
TCOON,ioos:station:TCOON:518:1,2017-01-01T07:00:00Z,29.5150,-94.5133,0.0,1.8,159.0,2.8,'11111222,11111222,11111222' 
TCOON,ioos:station:TCOON:518:1,2017-01-01T07:06:00Z,29.5150,-94.5133,0.0,2.1,160.0,2.5,'11111222,11111222,11111222' 
TCOON,ioos:station:TCOON:518:1,2017-01-01T07:12:00Z,29.5150,-94.5133,0.0,1.6,171.0,2.7,'11111222,11111222,11111222' 
TCOON,ioos:station:TCOON:518:1,2017-01-01T07:18:00Z,29.5150,-94.5133,0.0,1.6,171.0,2.7,'1111122,1111122,1111122' 
TCOON,ioos:station:TCOON:518:1,2017-01-01T07:24:00Z,29.5150,-94.5133,0.0,1.6,174.0,2.6,'11111222,11111222,11111222' 
TCOON,ioos:station:TCOON:518:1,2017-01-01T07:30:00Z,29.5150,-94.5133,0.0,1.5,178.0,2.8,'11111222,11111222,11111222' 
TCOON,ioos:station:TCOON:518:1,2017-01-01T07:36:00Z,29.5150,-94.5133,0.0,1.5,176.0,2.6,'11111222,11111222,11111222' 
TCOON,ioos:station:TCOON:518:1,2017-01-01T07:42:00Z,29.5150,-94.5133,0.0,1.3,177.0,3.2,'11111222,11111222,11111222' 
TCOON,ioos:station:TCOON:518:1,2017-01-01T07:48:00Z,29.5150,-94.5133,0.0,2.1,168.0,2.6,'11111222,11111222,11111222' 
TCOON,ioos:station:TCOON:518:1,2017-01-01T07:54:00Z,29.5150,-94.5133,0.0,1.8,169.0,2.5,'11111222,11111222,11111222' 
TCOON,ioos:station:TCOON:518:1,2017-01-01T08:00:00Z,29.5150,-94.5133,0.0,2.0,172.0,3.0,'11111222,11111222,11111222' 
TCOON,ioos:station:TCOON:518:1,2017-01-01T08:06:00Z,29.5150,-94.5133,0.0,1.5,178.0,3.1,'11111222,11111222,11111222' 
TCOON,ioos:station:TCOON:518:1,2017-01-01T08:12:00Z,29.5150,-94.5133,0.0,1.5,182.0,2.6,'11111222,11111222,11111222' 
TCOON,ioos:station:TCOON:518:1,2017-01-01T08:18:00Z,29.5150,-94.5133,0.0,1.5,182.0,2.6,'1111122,1111122,1111122' 
TCOON,ioos:station:TCOON:518:1,2017-01-01T08:24:00Z,29.5150,-94.5133,0.0,1.5,177.0,2.3,'11111222,11111222,11111222' 
TCOON,ioos:station:TCOON:518:1,2017-01-01T08:30:00Z,29.5150,-94.5133,0.0,1.6,170.0,2.2,'11111222,11111222,11111222' 
TCOON,ioos:station:TCOON:518:1,2017-01-01T08:36:00Z,29.5150,-94.5133,0.0,1.4,172.0,2.2,'11111222,11111222,11111222' 
TCOON,ioos:station:TCOON:518:1,2017-01-01T08:42:00Z,29.5150,-94.5133,0.0,1.5,169.0,2.4,'11111222,11111222,11111222' 
TCOON,ioos:station:TCOON:518:1,2017-01-01T08:48:00Z,29.5150,-94.5133,0.0,2.3,162.0,2.9,'11111222,11111222,11111222' 
TCOON,ioos:station:TCOON:518:1,2017-01-01T08:54:00Z,29.5150,-94.5133,0.0,1.8,156.0,3.0,'11111222,11111222,11111222' 
TCOON,ioos:station:TCOON:518:1,2017-01-01T09:00:00Z,29.5150,-94.5133,0.0,2.5,162.0,3.5,'11111222,11111222,11111222' 
TCOON,ioos:station:TCOON:518:1,2017-01-01T09:06:00Z,29.5150,-94.5133,0.0,1.3,170.0,3.1,'11111222,11111222,11111222' 
TCOON,ioos:station:TCOON:518:1,2017-01-01T09:12:00Z,29.5150,-94.5133,0.0,1.1,168.0,2.4,'11111222,11111222,11111222' 
TCOON,ioos:station:TCOON:518:1,2017-01-01T09:18:00Z,29.5150,-94.5133,0.0,0.7,205.0,1.5,'11111222,11111222,11111222' 
TCOON,ioos:station:TCOON:518:1,2017-01-01T09:24:00Z,29.5150,-94.5133,0.0,0.7,205.0,1.5,'1111122,1111122,1111122' 
TCOON,ioos:station:TCOON:518:1,2017-01-01T09:30:00Z,29.5150,-94.5133,0.0,0.5,277.0,0.8,'11111222,11111222,11111222' 
TCOON,ioos:station:TCOON:518:1,2017-01-01T09:36:00Z,29.5150,-94.5133,0.0,0.0,241.0,0.7,'11111222,11111222,11111222' 
TCOON,ioos:station:TCOON:518:1,2017-01-01T09:42:00Z,29.5150,-94.5133,0.0,0.5,194.0,0.7,'11111222,11111222,11111222' 
TCOON,ioos:station:TCOON:518:1,2017-01-01T09:48:00Z,29.5150,-94.5133,0.0,0.1,174.0,0.5,'11111222,11111222,11111222' 
TCOON,ioos:station:TCOON:518:1,2017-01-01T09:54:00Z,29.5150,-94.5133,0.0,0.4,174.0,0.5,'11111222,11111222,11111222' 
TCOON,ioos:station:TCOON:518:1,2017-01-01T10:00:00Z,29.5150,-94.5133,0.0,0.9,133.0,1.0,'11111222,11111222,11111222' 
TCOON,ioos:station:TCOON:518:1,2017-01-01T10:06:00Z,29.5150,-94.5133,0.0,1.0,119.0,1.2,'11111222,11111222,11111222' 
TCOON,ioos:station:TCOON:518:1,2017-01-01T10:12:00Z,29.5150,-94.5133,0.0,1.8,128.0,1.8,'11111222,11111222,11111222' 
TCOON,ioos:station:TCOON:518:1,2017-01-01T10:18:00Z,29.5150,-94.5133,0.0,1.8,128.0,1.8,'1111122,1111122,1111122' 
TCOON,ioos:station:TCOON:518:1,2017-01-01T10:24:00Z,29.5150,-94.5133,0.0,1.6,153.0,1.8,'11111222,11111222,11111222' 
TCOON,ioos:station:TCOON:518:1,2017-01-01T10:30:00Z,29.5150,-94.5133,0.0,1.7,150.0,1.9,'11111222,11111222,11111222' 
TCOON,ioos:station:TCOON:518:1,2017-01-01T10:36:00Z,29.5150,-94.5133,0.0,1.9,142.0,2.1,'11111222,11111222,11111222' 
TCOON,ioos:station:TCOON:518:1,2017-01-01T10:42:00Z,29.5150,-94.5133,0.0,1.5,133.0,2.0,'11111222,11111222,11111222' 
TCOON,ioos:station:TCOON:518:1,2017-01-01T10:48:00Z,29.5150,-94.5133,0.0,1.1,142.0,1.3,'11111222,11111222,11111222' 
TCOON,ioos:station:TCOON:518:1,2017-01-01T10:54:00Z,29.5150,-94.5133,0.0,1.0,130.0,1.1,'11111222,11111222,11111222' 
TCOON,ioos:station:TCOON:518:1,2017-01-01T11:00:00Z,29.5150,-94.5133,0.0,0.9,129.0,1.2,'11111222,11111222,11111222' 
TCOON,ioos:station:TCOON:518:1,2017-01-01T11:06:00Z,29.5150,-94.5133,0.0,0.3,89.0,0.8,'11111222,11111222,11111222' 
TCOON,ioos:station:TCOON:518:1,2017-01-01T11:12:00Z,29.5150,-94.5133,0.0,0.5,55.0,0.6,'11111222,11111222,11111222' 
TCOON,ioos:station:TCOON:518:1,2017-01-01T11:18:00Z,29.5150,-94.5133,0.0,0.5,55.0,0.6,'1111122,1111122,1111122' 
TCOON,ioos:station:TCOON:518:1,2017-01-01T11:24:00Z,29.5150,-94.5133,0.0,0.0,55.0,0.0,'11111222,11111222,11111222' 
TCOON,ioos:station:TCOON:518:1,2017-01-01T11:30:00Z,29.5150,-94.5133,0.0,0.6,24.0,0.9,'11111222,11111222,11111222' 
TCOON,ioos:station:TCOON:518:1,2017-01-01T11:36:00Z,29.5150,-94.5133,0.0,0.4,27.0,0.9,'11111222,11111222,11111222' 
TCOON,ioos:station:TCOON:518:1,2017-01-01T11:42:00Z,29.5150,-94.5133,0.0,1.0,57.0,1.0,'11111222,11111222,11111222' 
TCOON,ioos:station:TCOON:518:1,2017-01-01T11:48:00Z,29.5150,-94.5133,0.0,1.2,83.0,1.3,'11111222,11111222,11111222' 
TCOON,ioos:station:TCOON:518:1,2017-01-01T11:54:00Z,29.5150,-94.5133,0.0,1.2,75.0,1.4,'11111222,11111222,11111222' 
TCOON,ioos:station:TCOON:518:1,2017-01-01T12:00:00Z,29.5150,-94.5133,0.0,1.3,55.0,1.4,'11111222,11111222,11111222' 
TCOON,ioos:station:TCOON:518:1,2017-01-01T12:06:00Z,29.5150,-94.5133,0.0,1.3,58.0,1.4,'11111222,11111222,11111222' 
TCOON,ioos:station:TCOON:518:1,2017-01-01T12:12:00Z,29.5150,-94.5133,0.0,1.3,71.0,1.3,'11111222,11111222,11111222' 
TCOON,ioos:station:TCOON:518:1,2017-01-01T12:18:00Z,29.5150,-94.5133,0.0,1.3,71.0,1.3,'1111122,1111122,1111122' 
TCOON,ioos:station:TCOON:518:1,2017-01-01T12:24:00Z,29.5150,-94.5133,0.0,0.7,39.0,1.3,'11111222,11111222,11111222' 
TCOON,ioos:station:TCOON:518:1,2017-01-01T12:30:00Z,29.5150,-94.5133,0.0,0.9,77.0,1.0,'11111222,11111222,11111222' 
TCOON,ioos:station:TCOON:518:1,2017-01-01T12:36:00Z,29.5150,-94.5133,0.0,0.8,87.0,1.1,'11111222,11111222,11111222' 
TCOON,ioos:station:TCOON:518:1,2017-01-01T12:42:00Z,29.5150,-94.5133,0.0,0.9,70.0,0.9,'11111222,11111222,11111222' 
TCOON,ioos:station:TCOON:518:1,2017-01-01T12:48:00Z,29.5150,-94.5133,0.0,1.1,81.0,1.2,'11111222,11111222,11111222' 
TCOON,ioos:station:TCOON:518:1,2017-01-01T12:54:00Z,29.5150,-94.5133,0.0,1.3,98.0,1.5,'11111222,11111222,11111222' 
TCOON,ioos:station:TCOON:518:1,2017-01-01T13:00:00Z,29.5150,-94.5133,0.0,1.5,126.0,1.7,'11111222,11111222,11111222' 
TCOON,ioos:station:TCOON:518:1,2017-01-01T13:06:00Z,29.5150,-94.5133,0.0,1.7,131.0,1.8,'11111222,11111222,11111222' 
TCOON,ioos:station:TCOON:518:1,2017-01-01T13:12:00Z,29.5150,-94.5133,0.0,1.8,125.0,2.0,'11111222,11111222,11111222' 
TCOON,ioos:station:TCOON:518:1,2017-01-01T13:18:00Z,29.5150,-94.5133,0.0,1.8,125.0,2.0,'1111122,1111122,1111122' 
TCOON,ioos:station:TCOON:518:1,2017-01-01T13:24:00Z,29.5150,-94.5133,0.0,1.6,135.0,2.1,'11111222,11111222,11111222' 
TCOON,ioos:station:TCOON:518:1,2017-01-01T13:30:00Z,29.5150,-94.5133,0.0,1.3,135.0,1.9,'11111222,11111222,11111222' 
TCOON,ioos:station:TCOON:518:1,2017-01-01T13:36:00Z,29.5150,-94.5133,0.0,1.7,124.0,2.0,'11111222,11111222,11111222' 
TCOON,ioos:station:TCOON:518:1,2017-01-01T13:42:00Z,29.5150,-94.5133,0.0,1.3,126.0,1.5,'11111222,11111222,11111222' 
TCOON,ioos:station:TCOON:518:1,2017-01-01T13:48:00Z,29.5150,-94.5133,0.0,1.0,113.0,1.6,'11111222,11111222,11111222' 
TCOON,ioos:station:TCOON:518:1,2017-01-01T13:54:00Z,29.5150,-94.5133,0.0,1.4,99.0,1.6,'11111222,11111222,11111222' 
TCOON,ioos:station:TCOON:518:1,2017-01-01T14:00:00Z,29.5150,-94.5133,0.0,1.1,101.0,1.7,'11111222,11111222,11111222' 
TCOON,ioos:station:TCOON:518:1,2017-01-01T14:06:00Z,29.5150,-94.5133,0.0,1.5,120.0,1.6,'11111222,11111222,11111222' 
TCOON,ioos:station:TCOON:518:1,2017-01-01T14:12:00Z,29.5150,-94.5133,0.0,1.9,124.0,2.1,'11111222,11111222,11111222' 
TCOON,ioos:station:TCOON:518:1,2017-01-01T14:18:00Z,29.5150,-94.5133,0.0,1.1,139.0,1.6,'11111222,11111222,11111222' 
TCOON,ioos:station:TCOON:518:1,2017-01-01T14:24:00Z,29.5150,-94.5133,0.0,1.1,139.0,1.6,'1111122,1111122,1111122' 
TCOON,ioos:station:TCOON:518:1,2017-01-01T14:30:00Z,29.5150,-94.5133,0.0,2.3,124.0,2.3,'11111222,11111222,11111222' 
TCOON,ioos:station:TCOON:518:1,2017-01-01T14:36:00Z,29.5150,-94.5133,0.0,2.4,123.0,2.6,'11111222,11111222,11111222' 
TCOON,ioos:station:TCOON:518:1,2017-01-01T14:42:00Z,29.5150,-94.5133,0.0,1.5,146.0,2.9,'11111222,11111222,11111222' 
TCOON,ioos:station:TCOON:518:1,2017-01-01T14:48:00Z,29.5150,-94.5133,0.0,1.8,138.0,2.3,'11111222,11111222,11111222' 
TCOON,ioos:station:TCOON:518:1,2017-01-01T14:54:00Z,29.5150,-94.5133,0.0,2.8,135.0,3.4,'11111222,11111222,11111222' 
TCOON,ioos:station:TCOON:518:1,2017-01-01T15:00:00Z,29.5150,-94.5133,0.0,1.7,133.0,2.4,'11111222,11111222,11111222' 
TCOON,ioos:station:TCOON:518:1,2017-01-01T15:06:00Z,29.5150,-94.5133,0.0,1.8,119.0,2.4,'11111222,11111222,11111222' 
TCOON,ioos:station:TCOON:518:1,2017-01-01T15:12:00Z,29.5150,-94.5133,0.0,2.0,132.0,2.4,'11111222,11111222,11111222' 
TCOON,ioos:station:TCOON:518:1,2017-01-01T15:18:00Z,29.5150,-94.5133,0.0,2.0,132.0,2.4,'1111122,1111122,1111122' 
TCOON,ioos:station:TCOON:518:1,2017-01-01T15:24:00Z,29.5150,-94.5133,0.0,3.5,135.0,3.9,'11111222,11111222,11111222' 
TCOON,ioos:station:TCOON:518:1,2017-01-01T15:30:00Z,29.5150,-94.5133,0.0,4.1,136.0,4.6,'11111222,11111222,11111222' 
TCOON,ioos:station:TCOON:518:1,2017-01-01T15:36:00Z,29.5150,-94.5133,0.0,4.0,136.0,4.6,'11111222,11111222,11111222' 
TCOON,ioos:station:TCOON:518:1,2017-01-01T15:42:00Z,29.5150,-94.5133,0.0,3.8,134.0,4.6,'11111222,11111222,11111222' 
TCOON,ioos:station:TCOON:518:1,2017-01-01T15:48:00Z,29.5150,-94.5133,0.0,4.1,136.0,4.6,'11111222,11111222,11111222' 
TCOON,ioos:station:TCOON:518:1,2017-01-01T15:54:00Z,29.5150,-94.5133,0.0,4.0,145.0,4.8,'11111222,11111222,11111222' 
TCOON,ioos:station:TCOON:518:1,2017-01-01T16:00:00Z,29.5150,-94.5133,0.0,3.5,148.0,4.9,'11111222,11111222,11111222' 
TCOON,ioos:station:TCOON:518:1,2017-01-01T16:06:00Z,29.5150,-94.5133,0.0,3.5,144.0,4.4,'11111222,11111222,11111222' 
TCOON,ioos:station:TCOON:518:1,2017-01-01T16:12:00Z,29.5150,-94.5133,0.0,4.4,149.0,5.2,'11111222,11111222,11111222' 
TCOON,ioos:station:TCOON:518:1,2017-01-01T16:18:00Z,29.5150,-94.5133,0.0,4.4,149.0,5.2,'1111122,1111122,1111122' 
TCOON,ioos:station:TCOON:518:1,2017-01-01T16:24:00Z,29.5150,-94.5133,0.0,3.3,155.0,4.9,'11111222,11111222,11111222' 
TCOON,ioos:station:TCOON:518:1,2017-01-01T16:30:00Z,29.5150,-94.5133,0.0,3.8,155.0,5.1,'11111222,11111222,11111222' 
TCOON,ioos:station:TCOON:518:1,2017-01-01T16:36:00Z,29.5150,-94.5133,0.0,4.5,154.0,5.6,'11111222,11111222,11111222' 
TCOON,ioos:station:TCOON:518:1,2017-01-01T16:42:00Z,29.5150,-94.5133,0.0,4.9,156.0,6.2,'11111222,11111222,11111222' 
TCOON,ioos:station:TCOON:518:1,2017-01-01T16:48:00Z,29.5150,-94.5133,0.0,4.0,161.0,5.3,'11111222,11111222,11111222' 
TCOON,ioos:station:TCOON:518:1,2017-01-01T16:54:00Z,29.5150,-94.5133,0.0,4.7,154.0,6.0,'11111222,11111222,11111222' 
TCOON,ioos:station:TCOON:518:1,2017-01-01T17:00:00Z,29.5150,-94.5133,0.0,5.4,156.0,6.7,'11111222,11111222,11111222' 
TCOON,ioos:station:TCOON:518:1,2017-01-01T17:06:00Z,29.5150,-94.5133,0.0,4.8,159.0,6.7,'11111222,11111222,11111222' 
TCOON,ioos:station:TCOON:518:1,2017-01-01T17:12:00Z,29.5150,-94.5133,0.0,5.7,154.0,6.9,'11111222,11111222,11111222' 
TCOON,ioos:station:TCOON:518:1,2017-01-01T17:18:00Z,29.5150,-94.5133,0.0,5.7,154.0,6.9,'1111122,1111122,1111122' 
TCOON,ioos:station:TCOON:518:1,2017-01-01T17:24:00Z,29.5150,-94.5133,0.0,6.1,157.0,8.6,'11111222,11111222,11111222' 
TCOON,ioos:station:TCOON:518:1,2017-01-01T17:30:00Z,29.5150,-94.5133,0.0,5.1,158.0,7.4,'11111222,11111222,11111222' 
TCOON,ioos:station:TCOON:518:1,2017-01-01T17:36:00Z,29.5150,-94.5133,0.0,6.2,154.0,7.4,'11111222,11111222,11111222' 
TCOON,ioos:station:TCOON:518:1,2017-01-01T17:42:00Z,29.5150,-94.5133,0.0,6.2,161.0,7.8,'11111222,11111222,11111222' 
TCOON,ioos:station:TCOON:518:1,2017-01-01T17:48:00Z,29.5150,-94.5133,0.0,5.5,158.0,7.2,'11111222,11111222,11111222' 
TCOON,ioos:station:TCOON:518:1,2017-01-01T17:54:00Z,29.5150,-94.5133,0.0,5.6,163.0,7.6,'11111222,11111222,11111222' 
TCOON,ioos:station:TCOON:518:1,2017-01-01T18:00:00Z,29.5150,-94.5133,0.0,4.2,263.0,6.7,'11111222,11111222,11111222' 
TCOON,ioos:station:TCOON:518:1,2017-01-01T18:06:00Z,29.5150,-94.5133,0.0,3.0,256.0,5.8,'11111222,11111222,11111222' 
TCOON,ioos:station:TCOON:518:1,2017-01-01T18:12:00Z,29.5150,-94.5133,0.0,2.3,187.0,9.5,'11111222,11111222,11111222' 
TCOON,ioos:station:TCOON:518:1,2017-01-01T18:18:00Z,29.5150,-94.5133,0.0,2.1,243.0,4.1,'11111222,11111222,11111222' 
TCOON,ioos:station:TCOON:518:1,2017-01-01T18:24:00Z,29.5150,-94.5133,0.0,2.1,243.0,4.1,'1111122,1111122,1111122' 
TCOON,ioos:station:TCOON:518:1,2017-01-01T18:30:00Z,29.5150,-94.5133,0.0,3.3,237.0,4.4,'11111222,11111222,11111222' 
TCOON,ioos:station:TCOON:518:1,2017-01-01T18:36:00Z,29.5150,-94.5133,0.0,3.7,276.0,5.4,'11111222,11111222,11111222' 
TCOON,ioos:station:TCOON:518:1,2017-01-01T18:42:00Z,29.5150,-94.5133,0.0,2.4,287.0,4.9,'11111222,11111222,11111222' 
TCOON,ioos:station:TCOON:518:1,2017-01-01T18:48:00Z,29.5150,-94.5133,0.0,4.0,312.0,5.1,'11111222,11111222,11111222' 
TCOON,ioos:station:TCOON:518:1,2017-01-01T18:54:00Z,29.5150,-94.5133,0.0,3.4,294.0,5.5,'11111222,11111222,11111222' 
TCOON,ioos:station:TCOON:518:1,2017-01-01T19:00:00Z,29.5150,-94.5133,0.0,3.8,288.0,4.5,'11111222,11111222,11111222' 
TCOON,ioos:station:TCOON:518:1,2017-01-01T19:06:00Z,29.5150,-94.5133,0.0,3.7,293.0,4.4,'11111222,11111222,11111222' 
TCOON,ioos:station:TCOON:518:1,2017-01-01T19:12:00Z,29.5150,-94.5133,0.0,2.7,298.0,3.8,'11111222,11111222,11111222' 
TCOON,ioos:station:TCOON:518:1,2017-01-01T19:18:00Z,29.5150,-94.5133,0.0,2.7,298.0,3.8,'1111122,1111122,1111122' 
TCOON,ioos:station:TCOON:518:1,2017-01-01T19:24:00Z,29.5150,-94.5133,0.0,1.6,306.0,2.1,'11111222,11111222,11111222' 
TCOON,ioos:station:TCOON:518:1,2017-01-01T19:30:00Z,29.5150,-94.5133,0.0,1.5,301.0,3.2,'11111222,11111222,11111222' 
TCOON,ioos:station:TCOON:518:1,2017-01-01T19:36:00Z,29.5150,-94.5133,0.0,0.8,293.0,1.1,'11111222,11111222,11111222' 
TCOON,ioos:station:TCOON:518:1,2017-01-01T19:42:00Z,29.5150,-94.5133,0.0,0.0,284.0,1.0,'11111222,11111222,11111222' 
TCOON,ioos:station:TCOON:518:1,2017-01-01T19:48:00Z,29.5150,-94.5133,0.0,0.0,285.0,0.0,'11111222,11111222,11111222' 
TCOON,ioos:station:TCOON:518:1,2017-01-01T19:54:00Z,29.5150,-94.5133,0.0,0.6,53.0,0.8,'11111222,11111222,11111222' 
TCOON,ioos:station:TCOON:518:1,2017-01-01T20:00:00Z,29.5150,-94.5133,0.0,1.5,123.0,1.6,'11111222,11111222,11111222' 
TCOON,ioos:station:TCOON:518:1,2017-01-01T20:06:00Z,29.5150,-94.5133,0.0,2.0,137.0,2.1,'11111222,11111222,11111222' 
TCOON,ioos:station:TCOON:518:1,2017-01-01T20:12:00Z,29.5150,-94.5133,0.0,1.5,119.0,2.1,'11111222,11111222,11111222' 
TCOON,ioos:station:TCOON:518:1,2017-01-01T20:18:00Z,29.5150,-94.5133,0.0,1.5,119.0,2.1,'1111122,1111122,1111122' 